When you browse on this site, cookies collect data to enhance your experience and personalize the content and advertising you see.
Visit our Privacy Policy to learn more. By continuing to use the site, you agree to this use of cookies and data.
  • In Hungary
  • List of Countries
  • For 7 days
  • Water Temperature
  • Satellite Maps
  • Weather Map
  • News
  • Weather Widgets
  • user-avatar
    Login

    Hourly Weather Rozkoszowka

    Today, 20 January, Sunday

    Time Temperature Precipitation Wind Pressure Humidity
    00:00 -6°C° 0 mm 2 mps 739 mmHg 89%
    01:00 -6°C° 0 mm 2 mps 739 mmHg 89%
    02:00 -6°C° 0 mm 2 mps 739 mmHg 89%
    03:00 -7°C° 0 mm 2 mps 738 mmHg 89%
    04:00 -7°C° 0 mm 2 mps 738 mmHg 89%
    05:00 -7°C° 0 mm 2 mps 738 mmHg 89%
    06:00 -7°C° 0 mm 2 mps 738 mmHg 89%
    07:00 -7°C° 0 mm 2 mps 737 mmHg 89%
    08:00 -8°C° 0 mm 2 mps 737 mmHg 90%
    09:00 -6°C° 0 mm 1 mps 737 mmHg 88%
    10:00 -6°C° 0 mm 1 mps 737 mmHg 87%
    11:00 -4°C° 0 mm 1 mps 737 mmHg 86%
    12:00 -3°C° 0 mm 1 mps 737 mmHg 84%
    13:00 -3°C° 0 mm 1 mps 737 mmHg 83%
    14:00 -4°C° 0 mm 0 mps 736 mmHg 81%
    15:00 -4°C° 0 mm 0 mps 736 mmHg 83%
    16:00 -4°C° 0 mm 0 mps 736 mmHg 86%
    17:00 -4°C° 0 mm 1 mps 736 mmHg 88%
    18:00 -4°C° 0 mm 1 mps 736 mmHg 88%
    19:00 -4°C° 0 mm 1 mps 736 mmHg 88%
    20:00 -4°C° 0 mm 1 mps 736 mmHg 88%
    21:00 -6°C° 0 mm 1 mps 737 mmHg 87%
    22:00 -6°C° 0 mm 1 mps 737 mmHg 87%
    23:00 -7°C° 0 mm 2 mps 737 mmHg 86%

    Tomorrow, 21 January, Monday

    Time Temperature Precipitation Wind Pressure Humidity
    00:00 -7°C° 0 mm 2 mps 737 mmHg 86%
    01:00 -7°C° 0 mm 2 mps 737 mmHg 86%
    02:00 -7°C° 0 mm 2 mps 738 mmHg 86%
    03:00 -7°C° 0 mm 2 mps 738 mmHg 87%
    04:00 -7°C° 0 mm 2 mps 738 mmHg 89%
    05:00 -7°C° 0 mm 2 mps 738 mmHg 90%
    06:00 -7°C° 0 mm 2 mps 738 mmHg 91%
    07:00 -7°C° 0 mm 2 mps 739 mmHg 93%
    08:00 -7°C° 0 mm 2 mps 739 mmHg 94%
    09:00 -6°C° 0 mm 2 mps 739 mmHg 93%
    10:00 -6°C° 0 mm 2 mps 740 mmHg 91%
    11:00 -3°C° 0 mm 1 mps 740 mmHg 90%
    12:00 -3°C° 0 mm 1 mps 740 mmHg 88%
    13:00 -2°C° 0 mm 1 mps 740 mmHg 86%
    14:00 -2°C° 0 mm 1 mps 740 mmHg 84%
    15:00 -2°C° 0 mm 1 mps 740 mmHg 85%
    16:00 -2°C° 0 mm 1 mps 740 mmHg 86%
    17:00 -2°C° 0 mm 1 mps 740 mmHg 87%
    18:00 -3°C° 0 mm 1 mps 740 mmHg 86%
    19:00 -3°C° 0 mm 1 mps 740 mmHg 86%
    20:00 -3°C° 0 mm 1 mps 740 mmHg 85%
    21:00 -3°C° 0 mm 1 mps 740 mmHg 85%
    22:00 -3°C° 0 mm 1 mps 740 mmHg 85%
    23:00 -5°C° 0 mm 2 mps 740 mmHg 85%

    Day after tomorrow, 22 January, Tuesday

    Time Temperature Precipitation Wind Pressure Humidity
    00:00 -5°C° 0 mm 2 mps 740 mmHg 85%
    01:00 -5°C° 0 mm 2 mps 739 mmHg 86%
    02:00 -5°C° 0 mm 2 mps 739 mmHg 86%
    03:00 -6°C° 0 mm 2 mps 739 mmHg 87%
    04:00 -6°C° 0 mm 2 mps 738 mmHg 88%
    05:00 -6°C° 0 mm 2 mps 738 mmHg 89%
    06:00 -6°C° 0 mm 2 mps 738 mmHg 90%
    07:00 -7°C° 0 mm 2 mps 737 mmHg 90%
    08:00 -7°C° 0 mm 2 mps 737 mmHg 90%
    09:00 -7°C° 0 mm 2 mps 737 mmHg 88%
    10:00 -7°C° 0 mm 3 mps 737 mmHg 86%
    11:00 -7°C° 0 mm 3 mps 737 mmHg 84%
    12:00 -7°C° 0 mm 3 mps 736 mmHg 83%
    13:00 -6°C° 0 mm 3 mps 736 mmHg 81%
    14:00 -5°C° 0 mm 2 mps 735 mmHg 80%
    15:00 -6°C° 0 mm 3 mps 735 mmHg 83%
    16:00 -7°C° 0 mm 3 mps 735 mmHg 85%
    17:00 -7°C° 0 mm 3 mps 734 mmHg 87%
    18:00 -7°C° 0 mm 3 mps 734 mmHg 89%
    19:00 -8°C° 0 mm 3 mps 734 mmHg 91%
    20:00 -8°C° 0 mm 3 mps 733 mmHg 93%
    21:00 -9°C° 0 mm 4 mps 733 mmHg 93%
    22:00 -9°C° 0 mm 4 mps 733 mmHg 93%
    23:00 -9°C° 0 mm 4 mps 732 mmHg 93%

    23 January, Wednesday

    Time Temperature Precipitation Wind Pressure Humidity
    00:00 -9°C° 0 mm 4 mps 732 mmHg 93%
    01:00 -10°C° 0 mm 4 mps 732 mmHg 92%
    02:00 -11°C° 0 mm 5 mps 731 mmHg 92%
    03:00 -11°C° 0 mm 5 mps 731 mmHg 91%
    04:00 -11°C° 0 mm 5 mps 730 mmHg 90%
    05:00 -11°C° 0 mm 5 mps 730 mmHg 89%
    06:00 -10°C° 0 mm 5 mps 729 mmHg 90%
    07:00 -8°C° 0 mm 5 mps 729 mmHg 90%
    08:00 -8°C° 0 mm 5 mps 729 mmHg 90%
    09:00 -7°C° 0 mm 5 mps 729 mmHg 90%
    10:00 -7°C° 0 mm 5 mps 729 mmHg 89%
    11:00 -6°C° 0 mm 5 mps 729 mmHg 89%
    12:00 -5°C° 0 mm 5 mps 728 mmHg 89%
    13:00 -5°C° 0 mm 5 mps 728 mmHg 89%
    14:00 -4°C° 0 mm 5 mps 728 mmHg 89%
    15:00 -4°C° 0 mm 5 mps 728 mmHg 89%
    16:00 -4°C° 0 mm 5 mps 727 mmHg 90%
    17:00 -4°C° 0 mm 5 mps 727 mmHg 91%
    18:00 -4°C° 0 mm 5 mps 727 mmHg 91%
    19:00 -4°C° 0 mm 6 mps 727 mmHg 91%
    20:00 -4°C° 0 mm 6 mps 727 mmHg 92%
    21:00 -4°C° 0 mm 5 mps 727 mmHg 92%
    22:00 -2°C° 0 mm 5 mps 727 mmHg 93%
    23:00 -2°C° 0 mm 5 mps 727 mmHg 94%

    24 January, Thursday

    Time Temperature Precipitation Wind Pressure Humidity
    00:00 -2°C° 0 mm 5 mps 727 mmHg 93%
    01:00 -2°C° 0 mm 5 mps 727 mmHg 93%
    02:00 -2°C° 0 mm 5 mps 727 mmHg 92%
    03:00 -2°C° 0 mm 5 mps 727 mmHg 92%
    04:00 -4°C° 0 mm 5 mps 727 mmHg 92%
    05:00 -3°C° 0 mm 4 mps 727 mmHg 93%
    06:00 -3°C° 0 mm 4 mps 727 mmHg 93%
    07:00 -3°C° 0 mm 4 mps 727 mmHg 93%
    08:00 -2°C° 0 mm 3 mps 728 mmHg 94%
    09:00 -2°C° 0 mm 3 mps 728 mmHg 93%
    10:00 -2°C° 0 mm 3 mps 728 mmHg 93%
    11:00 -2°C° 0 mm 3 mps 728 mmHg 93%
    12:00 -2°C° 0 mm 2 mps 728 mmHg 93%
    13:00 -2°C° 0 mm 2 mps 729 mmHg 93%
    14:00 -2°C° 0 mm 2 mps 729 mmHg 94%
    15:00 -2°C° 0 mm 2 mps 729 mmHg 94%
    16:00 -2°C° 0 mm 2 mps 729 mmHg 95%
    17:00 -2°C° 0 mm 2 mps 729 mmHg 95%
    18:00 -2°C° 0 mm 2 mps 729 mmHg 95%
    19:00 -2°C° 0 mm 2 mps 730 mmHg 95%
    20:00 -2°C° 0 mm 2 mps 730 mmHg 95%
    21:00 -3°C° 0 mm 2 mps 730 mmHg 95%
    22:00 -3°C° 0 mm 2 mps 730 mmHg 95%
    23:00 -3°C° 0 mm 2 mps 731 mmHg 95%

    25 January, Friday

    Time Temperature Precipitation Wind Pressure Humidity
    00:00 -3°C° 0 mm 2 mps 731 mmHg 95%
    01:00 -3°C° 0 mm 2 mps 731 mmHg 95%
    02:00 -3°C° 0 mm 2 mps 731 mmHg 95%
    03:00 -3°C° 0 mm 2 mps 731 mmHg 95%
    04:00 -3°C° 0 mm 2 mps 731 mmHg 95%
    05:00 -3°C° 0 mm 2 mps 731 mmHg 95%
    06:00 -3°C° 0 mm 2 mps 731 mmHg 95%
    07:00 -4°C° 0 mm 2 mps 731 mmHg 95%
    08:00 -4°C° 0 mm 2 mps 731 mmHg 95%
    09:00 -4°C° 0 mm 2 mps 731 mmHg 94%
    10:00 -3°C° 0 mm 2 mps 731 mmHg 93%
    11:00 -3°C° 0 mm 2 mps 732 mmHg 91%
    12:00 -3°C° 0 mm 2 mps 732 mmHg 91%
    13:00 -3°C° 0 mm 2 mps 732 mmHg 90%
    14:00 -4°C° 0 mm 3 mps 732 mmHg 89%
    15:00 -4°C° 0 mm 3 mps 732 mmHg 89%
    16:00 -4°C° 0 mm 3 mps 732 mmHg 90%
    17:00 -4°C° 0 mm 3 mps 732 mmHg 91%
    18:00 -4°C° 0 mm 4 mps 732 mmHg 91%
    19:00 -4°C° 0 mm 4 mps 733 mmHg 90%
    20:00 -4°C° 0 mm 4 mps 733 mmHg 90%
    21:00 -5°C° 0 mm 4 mps 733 mmHg 90%
    22:00 -6°C° 0 mm 5 mps 733 mmHg 89%
    23:00 -6°C° 0 mm 5 mps 733 mmHg 88%
    Show more